TimeCDT,TemperatureF,Dew PointF,Humidity,Sea Level PressureIn,VisibilityMPH,Wind Direction,Wind SpeedMPH,Gust SpeedMPH,PrecipitationIn,Events,Conditions,WindDirDegrees,DateUTC
12:15 AM,5.0,-0.4,78,30.32,10.0,NW,12.7,-,N/A,,Clear,320,2013-03-20 05:15:00
12:35 AM,5.0,-0.4,78,30.32,10.0,NW,13.8,-,N/A,,Clear,320,2013-03-20 05:35:00
12:55 AM,5.0,-0.4,78,30.32,10.0,NW,15.0,-,N/A,,Clear,320,2013-03-20 05:55:00
1:15 AM,5.0,-0.4,78,30.32,10.0,NW,13.8,-,N/A,,Clear,320,2013-03-20 06:15:00
1:55 AM,5.0,-0.4,78,30.32,10.0,NW,16.1,-,N/A,,Clear,320,2013-03-20 06:55:00
2:15 AM,5.0,-0.4,78,30.33,10.0,NW,12.7,-,N/A,,Clear,320,2013-03-20 07:15:00
2:35 AM,1.4,-4.0,78,30.33,10.0,NW,10.4,-,N/A,,Clear,320,2013-03-20 07:35:00
2:55 AM,1.4,-4.0,78,30.33,10.0,NW,10.4,-,N/A,,Clear,310,2013-03-20 07:55:00
3:15 AM,1.4,-5.8,72,30.33,10.0,NW,10.4,-,N/A,,Clear,310,2013-03-20 08:15:00
3:35 AM,-0.4,-5.8,78,30.33,10.0,NW,10.4,-,N/A,,Clear,310,2013-03-20 08:35:00
3:55 AM,-2.2,-7.6,78,30.33,10.0,WNW,11.5,-,N/A,,Clear,300,2013-03-20 08:55:00
4:15 AM,-0.4,-5.8,78,30.33,10.0,WNW,12.7,-,N/A,,Clear,300,2013-03-20 09:15:00
4:35 AM,-2.2,-7.6,78,30.33,10.0,NW,11.5,-,N/A,,Clear,310,2013-03-20 09:35:00
4:55 AM,-2.2,-7.6,78,30.33,10.0,NW,11.5,-,N/A,,Clear,310,2013-03-20 09:55:00
5:15 AM,-4.0,-9.4,78,30.32,10.0,WNW,9.2,-,N/A,,Clear,300,2013-03-20 10:15:00
5:35 AM,-5.8,-9.4,84,30.33,10.0,WNW,8.1,-,N/A,,Clear,300,2013-03-20 10:35:00
5:55 AM,-4.0,-9.4,78,30.34,10.0,NW,9.2,-,N/A,,Clear,310,2013-03-20 10:55:00
6:15 AM,-4.0,-9.4,78,30.34,10.0,WNW,12.7,-,N/A,,Clear,300,2013-03-20 11:15:00
6:35 AM,-4.0,-7.6,85,30.34,10.0,WNW,12.7,-,N/A,,Clear,300,2013-03-20 11:35:00
6:55 AM,-5.8,-9.4,84,30.34,10.0,WNW,10.4,-,N/A,,Clear,290,2013-03-20 11:55:00
7:15 AM,-5.8,-9.4,84,30.34,10.0,WNW,11.5,-,N/A,,Clear,290,2013-03-20 12:15:00
7:35 AM,-5.8,-9.4,84,30.34,10.0,NW,9.2,-,N/A,,Clear,310,2013-03-20 12:35:00
7:55 AM,-5.8,-11.2,77,30.34,10.0,WNW,9.2,-,N/A,,Clear,300,2013-03-20 12:55:00
8:15 AM,-4.0,-9.4,78,30.34,10.0,NW,9.2,-,N/A,,Clear,310,2013-03-20 13:15:00
8:35 AM,-2.2,-7.6,78,30.34,10.0,NW,10.4,-,N/A,,Clear,310,2013-03-20 13:35:00
8:55 AM,-2.2,-7.6,78,30.34,10.0,NW,11.5,-,N/A,,Clear,310,2013-03-20 13:55:00
9:15 AM,1.4,-5.8,72,30.34,10.0,NW,10.4,-,N/A,,Clear,310,2013-03-20 14:15:00
9:35 AM,1.4,-5.8,72,30.33,10.0,NW,10.4,-,N/A,,Clear,310,2013-03-20 14:35:00
9:55 AM,3.2,-4.0,72,30.33,10.0,NW,9.2,-,N/A,,Clear,320,2013-03-20 14:55:00
10:15 AM,3.2,-4.0,72,30.33,7.0,NW,10.4,-,N/A,,Clear,320,2013-03-20 15:15:00
10:35 AM,5.0,-4.0,66,30.33,10.0,NW,12.7,-,N/A,,Clear,310,2013-03-20 15:35:00
10:55 AM,5.0,-0.4,78,30.33,10.0,NW,11.5,-,N/A,,Clear,310,2013-03-20 15:55:00
11:15 AM,6.8,-0.4,72,30.32,10.0,NW,10.4,-,N/A,,Clear,310,2013-03-20 16:15:00
11:35 AM,8.6,1.4,73,30.32,10.0,NW,11.5,-,N/A,,Clear,310,2013-03-20 16:35:00
11:55 AM,10.4,1.4,67,30.31,10.0,NW,13.8,-,N/A,,Clear,320,2013-03-20 16:55:00
12:15 PM,10.4,1.4,67,30.31,10.0,NW,13.8,-,N/A,,Clear,320,2013-03-20 17:15:00
12:35 PM,12.2,1.4,62,30.30,10.0,NNW,12.7,-,N/A,,Clear,330,2013-03-20 17:35:00
12:55 PM,12.2,3.2,67,30.29,10.0,NW,15.0,-,N/A,,Clear,320,2013-03-20 17:55:00
1:15 PM,12.2,3.2,67,30.29,10.0,NW,13.8,-,N/A,,Clear,320,2013-03-20 18:15:00
1:35 PM,14.0,3.2,62,30.28,10.0,NW,16.1,19.6,N/A,,Clear,320,2013-03-20 18:35:00
1:55 PM,14.0,3.2,62,30.28,7.0,NW,16.1,-,N/A,,Clear,320,2013-03-20 18:55:00
2:15 PM,14.0,3.2,62,30.27,10.0,NW,13.8,-,N/A,,Clear,320,2013-03-20 19:15:00
2:35 PM,14.0,5.0,67,30.26,10.0,NW,15.0,-,N/A,,Clear,320,2013-03-20 19:35:00
2:55 PM,15.8,5.0,62,30.26,10.0,NW,13.8,-,N/A,,Clear,320,2013-03-20 19:55:00
3:15 PM,15.8,5.0,62,30.26,10.0,NW,13.8,18.4,N/A,,Clear,310,2013-03-20 20:15:00
3:35 PM,15.8,5.0,62,30.25,10.0,NW,16.1,-,N/A,,Clear,320,2013-03-20 20:35:00
3:55 PM,15.8,5.0,62,30.25,10.0,NNW,13.8,-,N/A,,Clear,330,2013-03-20 20:55:00
4:15 PM,15.8,3.2,58,30.25,10.0,NNW,13.8,18.4,N/A,,Clear,340,2013-03-20 21:15:00
4:55 PM,15.8,5.0,62,30.23,10.0,NNW,12.7,-,N/A,,Clear,330,2013-03-20 21:55:00
5:15 PM,15.8,5.0,62,30.23,10.0,NNW,11.5,-,N/A,,Clear,330,2013-03-20 22:15:00
5:35 PM,15.8,5.0,62,30.23,10.0,NW,13.8,-,N/A,,Clear,320,2013-03-20 22:35:00
5:55 PM,14.0,5.0,67,30.22,10.0,NW,12.7,-,N/A,,Clear,320,2013-03-20 22:55:00
6:15 PM,14.0,5.0,67,30.21,10.0,NW,16.1,-,N/A,,Clear,320,2013-03-20 23:15:00
6:35 PM,14.0,5.0,67,30.21,10.0,NW,10.4,-,N/A,,Clear,320,2013-03-20 23:35:00
6:55 PM,12.2,5.0,73,30.21,10.0,NW,11.5,-,N/A,,Clear,320,2013-03-20 23:55:00
7:15 PM,12.2,3.2,67,30.20,10.0,NW,11.5,-,N/A,,Clear,320,2013-03-21 00:15:00
7:35 PM,10.4,3.2,73,30.20,10.0,NNW,9.2,-,N/A,,Clear,330,2013-03-21 00:35:00
7:55 PM,10.4,3.2,73,30.20,10.0,NW,6.9,-,N/A,,Clear,320,2013-03-21 00:55:00
8:15 PM,6.8,1.4,79,30.21,10.0,NW,6.9,-,N/A,,Clear,320,2013-03-21 01:15:00
8:35 PM,6.8,-0.4,72,30.21,10.0,NW,5.8,-,N/A,,Clear,320,2013-03-21 01:35:00
8:55 PM,5.0,-0.4,78,30.21,10.0,NW,5.8,-,N/A,,Clear,320,2013-03-21 01:55:00
9:15 PM,5.0,-0.4,78,30.20,10.0,NNW,4.6,-,N/A,,Clear,340,2013-03-21 02:15:00
9:35 PM,8.6,1.4,73,30.20,10.0,North,4.6,-,N/A,,Clear,350,2013-03-21 02:35:00
9:55 PM,5.0,-0.4,78,30.20,10.0,NNW,5.8,-,N/A,,Clear,330,2013-03-21 02:55:00
10:15 PM,5.0,-0.4,78,30.20,10.0,NNW,6.9,-,N/A,,Clear,340,2013-03-21 03:15:00
10:35 PM,1.4,-5.8,72,30.20,10.0,NW,5.8,-,N/A,,Clear,320,2013-03-21 03:35:00
10:55 PM,1.4,-4.0,78,30.20,10.0,NW,5.8,-,N/A,,Clear,310,2013-03-21 03:55:00
11:15 PM,-0.4,-5.8,78,30.19,10.0,Calm,Calm,-,N/A,,Clear,0,2013-03-21 04:15:00
11:35 PM,1.4,-4.0,78,30.18,10.0,North,5.8,-,N/A,,Clear,350,2013-03-21 04:35:00
11:55 PM,3.2,-2.2,78,30.17,10.0,North,4.6,-,N/A,,Clear,360,2013-03-21 04:55:00